Weather History for Clintonville, WI

Change the Weather History Date:

Friday, October 5, 2012

  Actual Average Record
Temperature  
Mean Temperature 42 °F -  
Max Temperature 51 °F 62 °F 84 °F (2005)
Min Temperature 33 °F 38 °F 21 °F (1980)
Degree Days  
Heating Degree Days 23    
Moisture  
Dew Point 28 °F    
Average Humidity 58    
Maximum Humidity 87    
Minimum Humidity 38    
Precipitation  
Precipitation 0.00 in - - ()
Sea Level Pressure  
Sea Level Pressure 30.00 in    
Wind  
Wind Speed 12 mph (West)    
Max Wind Speed 22 mph    
Max Gust Speed 29 mph    
Visibility 10 miles    
Events      
Averages and records for this station are not official NWS values.
T = Trace of Precipitation, MM = Missing Value Source: NWS Daily Summary

Daily Weather History Graph

Daily Weather History Graph

Search for Another Location

Airport:

Trip Planner

Search our weather history database for the weather conditions in past years. The results will help you decide how hot, cold, wet, or windy it might be!

Date:

Astronomy

Oct. 05, 2012 Rise Set
Actual Time 6:58 AM CDT 6:27 PM CDT
Civil Twilight 6:29 AM CDT 6:56 PM CDT
Nautical Twilight 5:55 AM CDT 7:30 PM CDT
Astronomical Twilight 5:21 AM CDT 8:04 PM CDT
Moon 9:39 PM CDT (10/5) 12:17 PM CDT (10/5)
Length of Visible Light 12h 27m
Length of Day
11h 28m
Waning Gibbous, 74% of the Moon is Illuminated
Oct 5
Waning Gibbous
Oct 8
Last Quarter
Oct 15
New
Oct 21
First Quarter
Oct 29
Full

Hourly Weather History & Observations

Time (CDT) Temp. Windchill Dew Point Humidity Pressure Visibility Wind Dir Wind Speed Gust Speed Precip Events Conditions
12:15 AM 42.8 °F 37.5 °F 32.0 °F 66% 30.03 in 10.0 mi West 9.2 mph - N/A   Clear
12:35 AM 42.8 °F 36.6 °F 32.0 °F 66% 30.03 in 10.0 mi West 11.5 mph 16.1 mph N/A   Clear
12:55 AM 42.8 °F 38.0 °F 32.0 °F 66% 30.03 in 10.0 mi West 8.1 mph 16.1 mph N/A   Clear
1:15 AM 42.8 °F 37.0 °F 30.2 °F 61% 30.02 in 10.0 mi West 10.4 mph 16.1 mph N/A   Clear
1:35 AM 42.8 °F 36.6 °F 30.2 °F 61% 30.02 in 10.0 mi West 11.5 mph 17.3 mph N/A   Clear
1:55 AM 42.8 °F 35.1 °F 30.2 °F 61% 30.02 in 10.0 mi West 16.1 mph 24.2 mph N/A   Clear
2:15 AM 41.0 °F 32.8 °F 30.2 °F 65% 30.03 in 10.0 mi West 16.1 mph 19.6 mph N/A   Clear
2:35 AM 41.0 °F 32.5 °F 30.2 °F 65% 30.04 in 10.0 mi West 17.3 mph 25.3 mph N/A   Clear
2:55 AM 41.0 °F 32.2 °F 28.4 °F 61% 30.04 in 10.0 mi West 18.4 mph 23.0 mph N/A   Clear
3:15 AM 41.0 °F 34.7 °F 28.4 °F 61% 30.04 in 10.0 mi West 10.4 mph 19.6 mph N/A   Clear
3:35 AM 41.0 °F 35.8 °F 28.4 °F 61% 30.03 in 10.0 mi West 8.1 mph 16.1 mph N/A   Scattered Clouds
3:55 AM 41.0 °F 35.2 °F 30.2 °F 65% 30.03 in 10.0 mi West 9.2 mph - N/A   Mostly Cloudy
4:15 AM 39.2 °F 35.9 °F 28.4 °F 65% 30.03 in 10.0 mi West 4.6 mph - N/A   Overcast
4:35 AM 37.4 °F 33.8 °F 30.2 °F 75% 30.03 in 10.0 mi WSW 4.6 mph - N/A   Scattered Clouds
4:55 AM 37.4 °F 32.8 °F 30.2 °F 75% 30.03 in 10.0 mi WSW 5.8 mph - N/A   Scattered Clouds
5:15 AM 35.6 °F 30.7 °F 30.2 °F 81% 30.03 in 10.0 mi SW 5.8 mph - N/A   Mostly Cloudy
5:35 AM 35.6 °F 30.7 °F 30.2 °F 81% 30.02 in 10.0 mi WSW 5.8 mph - N/A   Mostly Cloudy
5:55 AM 35.6 °F 30.7 °F 30.2 °F 81% 30.02 in 10.0 mi SW 5.8 mph - N/A   Scattered Clouds
6:15 AM 35.6 °F 29.9 °F 30.2 °F 81% 30.03 in 10.0 mi SW 6.9 mph - N/A   Scattered Clouds
6:35 AM 35.6 °F 30.7 °F 30.2 °F 81% 30.02 in 10.0 mi SW 5.8 mph - N/A   Scattered Clouds
6:55 AM 33.8 °F 27.0 °F 30.2 °F 87% 30.02 in 10.0 mi SSW 8.1 mph - N/A   Scattered Clouds
7:15 AM 33.8 °F 27.0 °F 30.2 °F 87% 30.02 in 10.0 mi SW 8.1 mph - N/A   Clear
7:35 AM 35.6 °F 29.2 °F 30.2 °F 81% 30.02 in 10.0 mi SW 8.1 mph - N/A   Mostly Cloudy
7:55 AM 37.4 °F 29.8 °F 30.2 °F 75% 30.02 in 10.0 mi SW 11.5 mph - N/A   Mostly Cloudy
8:15 AM 37.4 °F 29.8 °F 30.2 °F 75% 30.03 in 10.0 mi WSW 11.5 mph - N/A   Mostly Cloudy
8:35 AM 41.0 °F 34.3 °F 30.2 °F 65% 30.02 in 10.0 mi WSW 11.5 mph 20.7 mph N/A   Mostly Cloudy
8:55 AM 41.0 °F 33.5 °F 30.2 °F 65% 30.01 in 10.0 mi WSW 13.8 mph 24.2 mph N/A   Scattered Clouds
9:15 AM 42.8 °F 35.4 °F 30.2 °F 61% 30.01 in 10.0 mi West 15.0 mph 24.2 mph N/A   Clear
9:35 AM 42.8 °F 34.8 °F 30.2 °F 61% 30.01 in 10.0 mi West 17.3 mph 25.3 mph N/A   Clear
9:55 AM 44.6 °F 37.4 °F 30.2 °F 57% 30.01 in 10.0 mi WSW 16.1 mph 24.2 mph N/A   Scattered Clouds
10:15 AM 44.6 °F 37.4 °F 30.2 °F 57% 30.01 in 10.0 mi WSW 16.1 mph 21.9 mph N/A   Clear
10:35 AM 44.6 °F 37.4 °F 28.4 °F 53% 30.01 in 10.0 mi West 16.1 mph 23.0 mph N/A   Clear
10:55 AM 46.4 °F 40.4 °F 28.4 °F 50% 30.00 in 10.0 mi West 13.8 mph 23.0 mph N/A   Clear
11:15 AM 46.4 °F 39.2 °F 28.4 °F 50% 29.99 in 10.0 mi West 18.4 mph 26.5 mph N/A   Clear
11:35 AM 46.4 °F 40.1 °F 28.4 °F 50% 29.99 in 10.0 mi West 15.0 mph 23.0 mph N/A   Clear
11:55 AM 46.4 °F 40.1 °F 28.4 °F 50% 29.99 in 10.0 mi West 15.0 mph 21.9 mph N/A   Clear
12:15 PM 46.4 °F 39.8 °F 28.4 °F 50% 29.99 in 10.0 mi West 16.1 mph 26.5 mph N/A   Clear
12:35 PM 48.2 °F - 28.4 °F 46% 29.98 in 10.0 mi WSW 13.8 mph 25.3 mph N/A   Clear
12:55 PM 50.0 °F - 28.4 °F 43% 29.97 in 10.0 mi West 15.0 mph 24.2 mph N/A   Clear
1:15 PM 48.2 °F - 28.4 °F 46% 29.96 in 10.0 mi West 16.1 mph 23.0 mph N/A   Clear
1:35 PM 50.0 °F - 28.4 °F 43% 29.95 in 10.0 mi West 12.7 mph 26.5 mph N/A   Clear
1:55 PM 50.0 °F - 26.6 °F 40% 29.95 in 10.0 mi West 17.3 mph 27.6 mph N/A   Clear
2:15 PM 50.0 °F - 26.6 °F 40% 29.95 in 10.0 mi West 18.4 mph 27.6 mph N/A   Scattered Clouds
2:35 PM 50.0 °F - 26.6 °F 40% 29.94 in 10.0 mi West 17.3 mph 24.2 mph N/A   Scattered Clouds
2:55 PM 51.8 °F - 26.6 °F 38% 29.95 in 10.0 mi West 19.6 mph 26.5 mph N/A   Scattered Clouds
3:15 PM 50.0 °F - 26.6 °F 40% 29.94 in 10.0 mi West 15.0 mph 26.5 mph N/A   Scattered Clouds
3:35 PM 51.8 °F - 26.6 °F 38% 29.94 in 10.0 mi WNW 17.3 mph 26.5 mph N/A   Scattered Clouds
3:55 PM 50.0 °F - 26.6 °F 40% 29.94 in 10.0 mi West 17.3 mph 28.8 mph N/A   Scattered Clouds
4:15 PM 51.8 °F - 26.6 °F 38% 29.95 in 10.0 mi West 21.9 mph 28.8 mph N/A   Mostly Cloudy
4:35 PM 48.2 °F - 26.6 °F 43% 29.96 in 10.0 mi West 16.1 mph 21.9 mph N/A   Mostly Cloudy
4:55 PM 48.2 °F - 26.6 °F 43% 29.95 in 10.0 mi WNW 19.6 mph 26.5 mph N/A   Mostly Cloudy
5:15 PM 48.2 °F - 26.6 °F 43% 29.95 in 10.0 mi WNW 13.8 mph 23.0 mph N/A   Mostly Cloudy
5:35 PM 46.4 °F 40.4 °F 26.6 °F 46% 29.96 in 10.0 mi West 13.8 mph 23.0 mph N/A   Overcast
5:55 PM 46.4 °F 41.5 °F 28.4 °F 50% 29.96 in 10.0 mi WNW 10.4 mph - N/A   Overcast
6:15 PM 46.4 °F 39.5 °F 26.6 °F 46% 29.96 in 10.0 mi WNW 17.3 mph 23.0 mph N/A   Overcast
6:35 PM 44.6 °F 37.8 °F 26.6 °F 49% 29.97 in 10.0 mi West 15.0 mph 25.3 mph N/A   Overcast
6:55 PM 44.6 °F 39.2 °F 26.6 °F 49% 29.98 in 10.0 mi WNW 10.4 mph 21.9 mph N/A   Overcast
7:15 PM 44.6 °F 37.4 °F 26.6 °F 49% 29.99 in 10.0 mi WNW 16.1 mph 20.7 mph N/A   Overcast
7:35 PM 44.6 °F 36.6 °F 26.6 °F 49% 30.00 in 10.0 mi WNW 19.6 mph 27.6 mph N/A   Overcast
7:55 PM 42.8 °F 34.3 °F 26.6 °F 53% 30.00 in 10.0 mi WNW 19.6 mph 25.3 mph N/A   Overcast
8:15 PM 42.8 °F 34.5 °F 26.6 °F 53% 30.00 in 10.0 mi West 18.4 mph 24.2 mph N/A   Overcast
8:35 PM 42.8 °F 37.0 °F 26.6 °F 53% 30.00 in 10.0 mi WNW 10.4 mph 21.9 mph N/A   Overcast
8:55 PM 42.8 °F 34.8 °F 26.6 °F 53% 30.00 in 10.0 mi WNW 17.3 mph 25.3 mph N/A   Overcast
9:15 PM 41.0 °F 33.9 °F 26.6 °F 57% 30.00 in 10.0 mi WNW 12.7 mph 21.9 mph N/A   Overcast
9:35 PM 41.0 °F 34.7 °F 24.8 °F 53% 29.99 in 10.0 mi WNW 10.4 mph 19.6 mph N/A   Mostly Cloudy
9:55 PM 41.0 °F 33.5 °F 24.8 °F 53% 29.98 in 10.0 mi West 13.8 mph 17.3 mph N/A   Mostly Cloudy
10:15 PM 39.2 °F 32.0 °F 26.6 °F 61% 29.98 in 10.0 mi West 11.5 mph 18.4 mph N/A   Scattered Clouds
10:35 PM 39.2 °F 31.2 °F 26.6 °F 61% 29.98 in 10.0 mi WNW 13.8 mph 20.7 mph N/A   Clear
10:55 PM 37.4 °F 29.3 °F 26.6 °F 65% 29.98 in 10.0 mi West 12.7 mph - N/A   Clear
11:15 PM 37.4 °F 29.8 °F 26.6 °F 65% 29.98 in 10.0 mi West 11.5 mph 17.3 mph N/A   Clear
11:35 PM 37.4 °F 29.3 °F 26.6 °F 65% 29.98 in 10.0 mi WNW 12.7 mph 21.9 mph N/A   Clear
11:55 PM 37.4 °F 29.8 °F 26.6 °F 65% 29.98 in 10.0 mi West 11.5 mph - N/A   Clear